Year,Month,Day,Hour,Minute,Value (Times are PST for temperature in C)
2006,08,19,00,00,15.80
2006,08,19,00,01,15.70
2006,08,19,00,02,15.70
2006,08,19,00,03,15.70
2006,08,19,00,04,15.60
2006,08,19,00,05,15.60
2006,08,19,00,06,15.50
2006,08,19,00,07,15.50
2006,08,19,00,08,15.50
2006,08,19,00,09,15.40
2006,08,19,00,10,15.40
2006,08,19,00,11,15.40
2006,08,19,00,12,15.30
2006,08,19,00,13,15.30
2006,08,19,00,14,15.30
2006,08,19,00,15,15.30
2006,08,19,00,16,15.40
2006,08,19,00,17,15.40
2006,08,19,00,18,15.50
2006,08,19,00,19,15.50
2006,08,19,00,20,15.50
2006,08,19,00,21,15.60
2006,08,19,00,22,15.60
2006,08,19,00,23,15.60
2006,08,19,00,24,15.70
2006,08,19,00,25,15.70
2006,08,19,00,26,15.80
2006,08,19,00,27,15.80
2006,08,19,00,28,15.80
2006,08,19,00,29,15.80
2006,08,19,00,30,15.80
2006,08,19,00,31,15.80
2006,08,19,00,32,15.80
2006,08,19,00,33,15.80
2006,08,19,00,34,15.80
2006,08,19,00,35,15.80
2006,08,19,00,36,15.80
2006,08,19,00,37,15.80
2006,08,19,00,38,15.80
2006,08,19,00,39,15.80
2006,08,19,00,40,15.80
2006,08,19,00,41,15.70
2006,08,19,00,42,15.70
2006,08,19,00,43,15.60
2006,08,19,00,44,15.60
2006,08,19,00,45,15.60
2006,08,19,00,46,15.50
2006,08,19,00,47,15.50
2006,08,19,00,48,15.50
2006,08,19,00,49,15.40
2006,08,19,00,50,15.40
2006,08,19,00,51,15.40
2006,08,19,00,52,15.40
2006,08,19,00,53,15.40
2006,08,19,00,54,15.30
2006,08,19,00,55,15.30
2006,08,19,00,56,15.30
2006,08,19,00,57,15.30
2006,08,19,00,58,15.30
2006,08,19,00,59,15.30
2006,08,19,01,00,15.30
2006,08,19,01,01,15.30
2006,08,19,01,02,15.20
2006,08,19,01,03,15.20
2006,08,19,01,04,15.20
2006,08,19,01,05,15.20
2006,08,19,01,06,15.20
2006,08,19,01,07,15.20
2006,08,19,01,08,15.20
2006,08,19,01,09,15.20
2006,08,19,01,10,15.20
2006,08,19,01,11,15.20
2006,08,19,01,12,15.20
2006,08,19,01,13,15.30
2006,08,19,01,14,15.30
2006,08,19,01,15,15.30
2006,08,19,01,16,15.40
2006,08,19,01,17,15.50
2006,08,19,01,18,15.50
2006,08,19,01,19,15.60
2006,08,19,01,20,15.60
2006,08,19,01,21,15.70
2006,08,19,01,22,15.70
2006,08,19,01,23,15.80
2006,08,19,01,24,15.80
2006,08,19,01,25,15.80
2006,08,19,01,26,15.80
2006,08,19,01,27,15.90
2006,08,19,01,28,16.00
2006,08,19,01,29,16.10
2006,08,19,01,30,16.10
2006,08,19,01,31,16.20
2006,08,19,01,32,16.30
2006,08,19,01,33,16.30
2006,08,19,01,34,16.40
2006,08,19,01,35,16.50
2006,08,19,01,36,16.60
2006,08,19,01,37,16.60
2006,08,19,01,38,16.70
2006,08,19,01,39,16.70
2006,08,19,01,40,16.70
2006,08,19,01,41,16.60
2006,08,19,01,42,16.60
2006,08,19,01,43,16.60
2006,08,19,01,44,16.60
2006,08,19,01,45,16.60
2006,08,19,01,46,16.50
2006,08,19,01,47,16.40
2006,08,19,01,48,16.40
2006,08,19,01,49,16.40
2006,08,19,01,50,16.40
2006,08,19,01,51,16.40
2006,08,19,01,52,16.40
2006,08,19,01,53,16.30
2006,08,19,01,54,16.30
2006,08,19,01,55,16.30
2006,08,19,01,56,16.30
2006,08,19,01,57,16.30
2006,08,19,01,58,16.20
2006,08,19,01,59,16.20
2006,08,19,02,00,16.20
2006,08,19,02,01,16.20
2006,08,19,02,02,16.10
2006,08,19,02,03,16.10
2006,08,19,02,04,16.10
2006,08,19,02,05,16.10
2006,08,19,02,06,16.10
2006,08,19,02,07,16.10
2006,08,19,02,08,16.10
2006,08,19,02,09,16.10
2006,08,19,02,10,16.10
2006,08,19,02,11,16.10
2006,08,19,02,12,16.10
2006,08,19,02,13,16.10
2006,08,19,02,14,16.10
2006,08,19,02,15,16.10
2006,08,19,02,16,16.00
2006,08,19,02,17,15.90
2006,08,19,02,18,15.90
2006,08,19,02,19,15.90
2006,08,19,02,20,15.90
2006,08,19,02,21,15.90
2006,08,19,02,22,15.80
2006,08,19,02,23,15.80
2006,08,19,02,24,15.80
2006,08,19,02,25,15.80
2006,08,19,02,26,15.80
2006,08,19,02,27,15.80
2006,08,19,02,28,15.70
2006,08,19,02,29,15.70
2006,08,19,02,30,15.70
2006,08,19,02,31,15.70
2006,08,19,02,32,15.60
2006,08,19,02,33,15.60
2006,08,19,02,34,15.60
2006,08,19,02,35,15.50
2006,08,19,02,36,15.50
2006,08,19,02,37,15.50
2006,08,19,02,38,15.40
2006,08,19,02,39,15.40
2006,08,19,02,40,15.30
2006,08,19,02,41,15.30
2006,08,19,02,42,15.30
2006,08,19,02,43,15.30
2006,08,19,02,44,15.30
2006,08,19,02,45,15.20
2006,08,19,02,46,15.20
2006,08,19,02,47,15.20
2006,08,19,02,48,15.20
2006,08,19,02,49,15.10
2006,08,19,02,50,15.10
2006,08,19,02,51,15.10
2006,08,19,02,52,15.00
2006,08,19,02,53,15.00
2006,08,19,02,54,15.00
2006,08,19,02,55,14.90
2006,08,19,02,56,14.90
2006,08,19,02,57,14.90
2006,08,19,02,58,14.80
2006,08,19,02,59,14.80
2006,08,19,03,00,14.80
2006,08,19,03,01,14.80
2006,08,19,03,02,14.70
2006,08,19,03,03,14.60
2006,08,19,03,04,14.60
2006,08,19,03,05,14.60
2006,08,19,03,06,14.50
2006,08,19,03,07,14.50
2006,08,19,03,08,14.40
2006,08,19,03,09,14.40
2006,08,19,03,10,14.30
2006,08,19,03,11,14.30
2006,08,19,03,12,14.20
2006,08,19,03,13,14.20
2006,08,19,03,14,14.20
2006,08,19,03,15,14.20
2006,08,19,03,16,14.20
2006,08,19,03,17,14.20
2006,08,19,03,18,14.20
2006,08,19,03,19,14.20
2006,08,19,03,20,14.20
2006,08,19,03,21,14.20
2006,08,19,03,22,14.20
2006,08,19,03,23,14.20
2006,08,19,03,24,14.20
2006,08,19,03,25,14.20
2006,08,19,03,26,14.20
2006,08,19,03,27,14.20
2006,08,19,03,28,14.20
2006,08,19,03,29,14.20
2006,08,19,03,30,14.10
2006,08,19,03,31,14.10
2006,08,19,03,32,14.10
2006,08,19,03,33,14.00
2006,08,19,03,34,14.00
2006,08,19,03,35,14.00
2006,08,19,03,36,13.90
2006,08,19,03,37,13.90
2006,08,19,03,38,13.90
2006,08,19,03,39,13.90
2006,08,19,03,40,13.90
2006,08,19,03,41,13.80
2006,08,19,03,42,13.80
2006,08,19,03,43,13.80
2006,08,19,03,44,13.80
2006,08,19,03,45,13.80
2006,08,19,03,46,13.80
2006,08,19,03,47,13.80
2006,08,19,03,48,13.80
2006,08,19,03,49,13.90
2006,08,19,03,50,13.90
2006,08,19,03,51,13.90
2006,08,19,03,52,13.90
2006,08,19,03,53,13.90
2006,08,19,03,54,13.90
2006,08,19,03,55,13.90
2006,08,19,03,56,13.90
2006,08,19,03,57,14.00
2006,08,19,03,58,14.00
2006,08,19,03,59,14.00
2006,08,19,04,00,14.00
2006,08,19,04,01,14.00
2006,08,19,04,02,14.00
2006,08,19,04,03,14.00
2006,08,19,04,04,14.00
2006,08,19,04,05,14.00
2006,08,19,04,06,13.90
2006,08,19,04,07,13.90
2006,08,19,04,08,13.90
2006,08,19,04,09,13.90
2006,08,19,04,10,13.90
2006,08,19,04,11,13.90
2006,08,19,04,12,13.80
2006,08,19,04,13,13.80
2006,08,19,04,14,13.80
2006,08,19,04,15,13.80
2006,08,19,04,16,13.70
2006,08,19,04,17,13.70
2006,08,19,04,18,13.70
2006,08,19,04,19,13.70
2006,08,19,04,20,13.70
2006,08,19,04,21,13.70
2006,08,19,04,22,13.60
2006,08,19,04,23,13.60
2006,08,19,04,24,13.60
2006,08,19,04,25,13.60
2006,08,19,04,26,13.50
2006,08,19,04,27,13.50
2006,08,19,04,28,13.50
2006,08,19,04,29,13.40
2006,08,19,04,30,13.40
2006,08,19,04,31,13.30
2006,08,19,04,32,13.30
2006,08,19,04,33,13.30
2006,08,19,04,34,13.20
2006,08,19,04,35,13.20
2006,08,19,04,36,13.10
2006,08,19,04,37,13.10
2006,08,19,04,38,13.00
2006,08,19,04,39,13.00
2006,08,19,04,40,12.90
2006,08,19,04,41,12.90
2006,08,19,04,42,12.80
2006,08,19,04,43,12.80
2006,08,19,04,44,12.80
2006,08,19,04,45,12.80
2006,08,19,04,46,12.70
2006,08,19,04,47,12.70
2006,08,19,04,48,12.70
2006,08,19,04,49,12.60
2006,08,19,04,50,12.60
2006,08,19,04,51,12.60
2006,08,19,04,52,12.60
2006,08,19,04,53,12.60
2006,08,19,04,54,12.60
2006,08,19,04,55,12.60
2006,08,19,04,56,12.60
2006,08,19,04,57,12.60
2006,08,19,04,58,12.60
2006,08,19,04,59,12.60
2006,08,19,05,00,12.60
2006,08,19,05,01,12.60
2006,08,19,05,02,12.60
2006,08,19,05,03,12.60
2006,08,19,05,04,12.60
2006,08,19,05,05,12.60
2006,08,19,05,06,12.60
2006,08,19,05,07,12.70
2006,08,19,05,08,12.70
2006,08,19,05,09,12.70
2006,08,19,05,10,12.70
2006,08,19,05,11,12.70
2006,08,19,05,12,12.70
2006,08,19,05,13,12.70
2006,08,19,05,14,12.70
2006,08,19,05,15,12.70
2006,08,19,05,16,12.70
2006,08,19,05,17,12.70
2006,08,19,05,18,12.70
2006,08,19,05,19,12.70
2006,08,19,05,20,12.70
2006,08,19,05,21,12.70
2006,08,19,05,22,12.60
2006,08,19,05,23,12.60
2006,08,19,05,24,12.60
2006,08,19,05,25,12.50
2006,08,19,05,26,12.50
2006,08,19,05,27,12.50
2006,08,19,05,28,12.50
2006,08,19,05,29,12.40
2006,08,19,05,30,12.40
2006,08,19,05,31,12.40
2006,08,19,05,32,12.30
2006,08,19,05,33,12.30
2006,08,19,05,34,12.30
2006,08,19,05,35,12.30
2006,08,19,05,36,12.30
2006,08,19,05,37,12.30
2006,08,19,05,38,12.30
2006,08,19,05,39,12.20
2006,08,19,05,40,12.20
2006,08,19,05,41,12.10
2006,08,19,05,42,12.10
2006,08,19,05,43,12.10
2006,08,19,05,44,12.10
2006,08,19,05,45,12.00
2006,08,19,05,46,12.00
2006,08,19,05,47,12.00
2006,08,19,05,48,12.00
2006,08,19,05,49,12.00
2006,08,19,05,50,12.00
2006,08,19,05,51,12.00
2006,08,19,05,52,12.00
2006,08,19,05,53,12.10
2006,08,19,05,54,12.10
2006,08,19,05,55,12.10
2006,08,19,05,56,12.10
2006,08,19,05,57,12.10
2006,08,19,05,58,12.20
2006,08,19,05,59,12.20
2006,08,19,06,00,12.20
2006,08,19,06,01,12.20
2006,08,19,06,02,12.20
2006,08,19,06,03,12.20
2006,08,19,06,04,12.30
2006,08,19,06,05,12.30
2006,08,19,06,06,12.30
2006,08,19,06,07,12.30
2006,08,19,06,08,12.30
2006,08,19,06,09,12.30
2006,08,19,06,10,12.30
2006,08,19,06,11,12.30
2006,08,19,06,12,12.30
2006,08,19,06,13,12.40
2006,08,19,06,14,12.40
2006,08,19,06,15,12.30
2006,08,19,06,16,12.30
2006,08,19,06,17,12.30
2006,08,19,06,18,12.30
2006,08,19,06,19,12.30
2006,08,19,06,20,12.30
2006,08,19,06,21,12.30
2006,08,19,06,22,12.30
2006,08,19,06,23,12.30
2006,08,19,06,24,12.30
2006,08,19,06,25,12.30
2006,08,19,06,26,12.20
2006,08,19,06,27,12.20
2006,08,19,06,28,12.20
2006,08,19,06,29,12.10
2006,08,19,06,30,12.10
2006,08,19,06,31,12.10
2006,08,19,06,32,12.00
2006,08,19,06,33,12.00
2006,08,19,06,34,12.00
2006,08,19,06,35,11.90
2006,08,19,06,36,11.90
2006,08,19,06,37,11.90
2006,08,19,06,38,11.80
2006,08,19,06,39,11.80
2006,08,19,06,40,11.80
2006,08,19,06,41,11.80
2006,08,19,06,42,11.80
2006,08,19,06,43,11.70
2006,08,19,06,44,11.70
2006,08,19,06,45,11.70
2006,08,19,06,46,11.70
2006,08,19,06,47,11.60
2006,08,19,06,48,11.60
2006,08,19,06,49,11.60
2006,08,19,06,50,11.60
2006,08,19,06,51,11.60
2006,08,19,06,52,11.60
2006,08,19,06,53,11.60
2006,08,19,06,54,11.60
2006,08,19,06,55,11.60
2006,08,19,06,56,11.60
2006,08,19,06,57,11.60
2006,08,19,06,58,11.60
2006,08,19,06,59,11.60
2006,08,19,07,00,11.60
2006,08,19,07,01,11.60
2006,08,19,07,02,11.60
2006,08,19,07,03,11.60
2006,08,19,07,04,11.60
2006,08,19,07,05,11.60
2006,08,19,07,06,11.60
2006,08,19,07,07,11.60
2006,08,19,07,08,11.60
2006,08,19,07,09,11.60
2006,08,19,07,10,11.60
2006,08,19,07,11,11.60
2006,08,19,07,12,11.60
2006,08,19,07,13,11.70
2006,08,19,07,14,11.70
2006,08,19,07,15,11.80
2006,08,19,07,16,11.80
2006,08,19,07,17,11.90
2006,08,19,07,18,12.00
2006,08,19,07,19,12.10
2006,08,19,07,20,12.20
2006,08,19,07,21,12.30
2006,08,19,07,22,12.30
2006,08,19,07,23,12.40
2006,08,19,07,24,12.50
2006,08,19,07,25,12.50
2006,08,19,07,26,12.60
2006,08,19,07,27,12.70
2006,08,19,07,28,12.80
2006,08,19,07,29,12.90
2006,08,19,07,30,13.00
2006,08,19,07,31,13.10
2006,08,19,07,32,13.20
2006,08,19,07,33,13.20
2006,08,19,07,34,13.30
2006,08,19,07,35,13.30
2006,08,19,07,36,13.30
2006,08,19,07,37,13.40
2006,08,19,07,38,13.40
2006,08,19,07,39,13.50
2006,08,19,07,40,13.50
2006,08,19,07,41,13.60
2006,08,19,07,42,13.70
2006,08,19,07,43,13.70
2006,08,19,07,44,13.80
2006,08,19,07,45,13.90
2006,08,19,07,46,14.00
2006,08,19,07,47,14.00
2006,08,19,07,48,14.10
2006,08,19,07,49,14.20
2006,08,19,07,50,14.20
2006,08,19,07,51,14.30
2006,08,19,07,52,14.40
2006,08,19,07,53,14.50
2006,08,19,07,54,14.60
2006,08,19,07,55,14.60
2006,08,19,07,56,14.70
2006,08,19,07,57,14.80
2006,08,19,07,58,14.90
2006,08,19,07,59,14.90
2006,08,19,08,00,15.00
2006,08,19,08,01,15.10
2006,08,19,08,02,15.10
2006,08,19,08,03,15.20
2006,08,19,08,04,15.20
2006,08,19,08,05,15.30
2006,08,19,08,06,15.30
2006,08,19,08,07,15.30
2006,08,19,08,08,15.40
2006,08,19,08,09,15.40
2006,08,19,08,10,15.50
2006,08,19,08,11,15.50
2006,08,19,08,12,15.50
2006,08,19,08,13,15.60
2006,08,19,08,14,15.60
2006,08,19,08,15,15.70
2006,08,19,08,16,15.70
2006,08,19,08,17,15.70
2006,08,19,08,18,15.80
2006,08,19,08,19,15.80
2006,08,19,08,20,15.80
2006,08,19,08,21,15.80
2006,08,19,08,22,15.80
2006,08,19,08,23,15.80
2006,08,19,08,24,15.80
2006,08,19,08,25,15.80
2006,08,19,08,26,15.80
2006,08,19,08,27,15.90
2006,08,19,08,28,15.90
2006,08,19,08,29,16.00
2006,08,19,08,30,16.10
2006,08,19,08,31,16.10
2006,08,19,08,32,16.10
2006,08,19,08,33,16.10
2006,08,19,08,34,16.10
2006,08,19,08,35,16.20
2006,08,19,08,36,16.20
2006,08,19,08,37,16.20
2006,08,19,08,38,16.20
2006,08,19,08,39,16.20
2006,08,19,08,40,16.20
2006,08,19,08,41,16.30
2006,08,19,08,42,16.30
2006,08,19,08,43,16.30
2006,08,19,08,44,16.30
2006,08,19,08,45,16.30
2006,08,19,08,46,16.30
2006,08,19,08,47,16.40
2006,08,19,08,48,16.40
2006,08,19,08,49,16.40
2006,08,19,08,50,16.40
2006,08,19,08,51,16.40
2006,08,19,08,52,16.40
2006,08,19,08,53,16.40
2006,08,19,08,54,16.40
2006,08,19,08,55,16.50
2006,08,19,08,56,16.60
2006,08,19,08,57,16.70
2006,08,19,08,58,16.70
2006,08,19,08,59,16.70
2006,08,19,09,00,16.80
2006,08,19,09,01,16.90
2006,08,19,09,02,17.00
2006,08,19,09,03,17.10
2006,08,19,09,04,17.20
2006,08,19,09,05,17.30
2006,08,19,09,06,17.30
2006,08,19,09,07,17.30
2006,08,19,09,08,17.30
2006,08,19,09,09,17.30
2006,08,19,09,10,17.30
2006,08,19,09,11,17.40
2006,08,19,09,12,17.50
2006,08,19,09,13,17.60
2006,08,19,09,14,17.70
2006,08,19,09,15,17.80
2006,08,19,09,16,17.80
2006,08,19,09,17,17.90
2006,08,19,09,18,17.90
2006,08,19,09,19,18.00
2006,08,19,09,20,18.10
2006,08,19,09,21,18.20
2006,08,19,09,22,18.20
2006,08,19,09,23,18.30
2006,08,19,09,24,18.40
2006,08,19,09,25,18.50
2006,08,19,09,26,18.50
2006,08,19,09,27,18.50
2006,08,19,09,28,18.60
2006,08,19,09,29,18.60
2006,08,19,09,30,18.70
2006,08,19,09,31,18.70
2006,08,19,09,32,18.80
2006,08,19,09,33,18.70
2006,08,19,09,34,18.70
2006,08,19,09,35,18.70
2006,08,19,09,36,18.70
2006,08,19,09,37,18.70
2006,08,19,09,38,18.70
2006,08,19,09,39,18.70
2006,08,19,09,40,18.90
2006,08,19,09,41,18.90
2006,08,19,09,42,18.90
2006,08,19,09,43,18.90
2006,08,19,09,44,18.90
2006,08,19,09,45,18.90
2006,08,19,09,46,18.90
2006,08,19,09,47,18.90
2006,08,19,09,48,19.00
2006,08,19,09,49,19.10
2006,08,19,09,50,19.10
2006,08,19,09,51,19.00
2006,08,19,09,52,19.00
2006,08,19,09,53,19.10
2006,08,19,09,54,19.10
2006,08,19,09,55,19.10
2006,08,19,09,56,19.10
2006,08,19,09,57,19.20
2006,08,19,09,58,19.30
2006,08,19,09,59,19.30
2006,08,19,10,00,19.30
2006,08,19,10,01,19.30
2006,08,19,10,02,19.50
2006,08,19,10,03,19.50
2006,08,19,10,04,19.40
2006,08,19,10,05,19.30
2006,08,19,10,06,19.30
2006,08,19,10,07,19.30
2006,08,19,10,08,19.20
2006,08,19,10,09,19.10
2006,08,19,10,10,19.20
2006,08,19,10,11,19.30
2006,08,19,10,12,19.40
2006,08,19,10,13,19.40
2006,08,19,10,14,19.50
2006,08,19,10,15,19.50
2006,08,19,10,16,19.50
2006,08,19,10,17,19.50
2006,08,19,10,18,19.40
2006,08,19,10,19,19.30
2006,08,19,10,20,19.40
2006,08,19,10,21,19.50
2006,08,19,10,22,19.50
2006,08,19,10,23,19.60
2006,08,19,10,24,19.60
2006,08,19,10,25,19.50
2006,08,19,10,26,19.60
2006,08,19,10,27,19.60
2006,08,19,10,28,19.60
2006,08,19,10,29,19.70
2006,08,19,10,30,19.70
2006,08,19,10,31,19.80
2006,08,19,10,32,19.80
2006,08,19,10,33,19.70
2006,08,19,10,34,19.60
2006,08,19,10,35,19.60
2006,08,19,10,36,19.60
2006,08,19,10,37,19.70
2006,08,19,10,38,19.70
2006,08,19,10,39,19.80
2006,08,19,10,40,19.90
2006,08,19,10,41,19.90
2006,08,19,10,42,19.90
2006,08,19,10,43,19.80
2006,08,19,10,44,19.80
2006,08,19,10,45,19.70
2006,08,19,10,46,19.70
2006,08,19,10,47,19.90
2006,08,19,10,48,19.90
2006,08,19,10,49,19.90
2006,08,19,10,50,19.90
2006,08,19,10,51,20.10
2006,08,19,10,52,20.30
2006,08,19,10,53,20.30
2006,08,19,10,54,20.40
2006,08,19,10,55,20.30
2006,08,19,10,56,20.20
2006,08,19,10,57,20.20
2006,08,19,10,58,20.20
2006,08,19,10,59,20.20
2006,08,19,11,00,20.20
2006,08,19,11,01,20.30
2006,08,19,11,02,20.40
2006,08,19,11,03,20.50
2006,08,19,11,04,20.60
2006,08,19,11,05,20.70
2006,08,19,11,06,20.60
2006,08,19,11,07,20.60
2006,08,19,11,08,20.70
2006,08,19,11,09,20.70
2006,08,19,11,10,20.80
2006,08,19,11,11,20.80
2006,08,19,11,12,20.80
2006,08,19,11,13,21.00
2006,08,19,11,14,21.00
2006,08,19,11,15,21.00
2006,08,19,11,16,21.10
2006,08,19,11,17,21.10
2006,08,19,11,18,21.00
2006,08,19,11,19,20.90
2006,08,19,11,20,20.90
2006,08,19,11,21,20.80
2006,08,19,11,22,20.90
2006,08,19,11,23,20.80
2006,08,19,11,24,20.90
2006,08,19,11,25,20.80
2006,08,19,11,26,20.60
2006,08,19,11,27,20.50
2006,08,19,11,28,20.50
2006,08,19,11,29,20.50
2006,08,19,11,30,20.60
2006,08,19,11,31,20.70
2006,08,19,11,32,20.80
2006,08,19,11,33,20.90
2006,08,19,11,34,21.00
2006,08,19,11,35,20.90
2006,08,19,11,36,20.80
2006,08,19,11,37,20.70
2006,08,19,11,38,20.60
2006,08,19,11,39,20.70
2006,08,19,11,40,20.80
2006,08,19,11,41,20.80
2006,08,19,11,42,21.00
2006,08,19,11,43,21.10
2006,08,19,11,44,21.20
2006,08,19,11,45,21.20
2006,08,19,11,46,21.20
2006,08,19,11,47,21.20
2006,08,19,11,48,21.20
2006,08,19,11,49,21.20
2006,08,19,11,50,21.20
2006,08,19,11,51,21.10
2006,08,19,11,52,21.00
2006,08,19,11,53,21.10
2006,08,19,11,54,21.20
2006,08,19,11,55,21.20
2006,08,19,11,56,21.20
2006,08,19,11,57,21.20
2006,08,19,11,58,21.20
2006,08,19,11,59,21.30
2006,08,19,12,00,21.40
2006,08,19,12,01,21.60
2006,08,19,12,02,21.60
2006,08,19,12,03,21.50
2006,08,19,12,04,21.40
2006,08,19,12,05,21.30
2006,08,19,12,06,21.20
2006,08,19,12,07,21.10
2006,08,19,12,08,21.10
2006,08,19,12,09,21.10
2006,08,19,12,10,21.20
2006,08,19,12,11,21.30
2006,08,19,12,12,21.20
2006,08,19,12,13,21.20
2006,08,19,12,14,21.10
2006,08,19,12,15,21.10
2006,08,19,12,16,21.10
2006,08,19,12,17,21.30
2006,08,19,12,18,21.40
2006,08,19,12,19,21.60
2006,08,19,12,20,21.60
2006,08,19,12,21,21.40
2006,08,19,12,22,21.30
2006,08,19,12,23,21.40
2006,08,19,12,24,21.40
2006,08,19,12,25,21.50
2006,08,19,12,26,21.60
2006,08,19,12,27,21.70
2006,08,19,12,28,21.60
2006,08,19,12,29,21.60
2006,08,19,12,30,21.60
2006,08,19,12,31,21.50
2006,08,19,12,32,21.30
2006,08,19,12,33,21.30
2006,08,19,12,34,21.30
2006,08,19,12,35,21.30
2006,08,19,12,36,21.30
2006,08,19,12,37,21.50
2006,08,19,12,38,21.60
2006,08,19,12,39,21.50
2006,08,19,12,40,21.30
2006,08,19,12,41,21.30
2006,08,19,12,42,21.20
2006,08,19,12,43,21.30
2006,08,19,12,44,21.30
2006,08,19,12,45,21.40
2006,08,19,12,46,21.40
2006,08,19,12,47,21.60
2006,08,19,12,48,21.70
2006,08,19,12,49,21.90
2006,08,19,12,50,22.10
2006,08,19,12,51,22.20
2006,08,19,12,52,22.20
2006,08,19,12,53,22.20
2006,08,19,12,54,22.10
2006,08,19,12,55,21.90
2006,08,19,12,56,21.70
2006,08,19,12,57,21.60
2006,08,19,12,58,21.70
2006,08,19,12,59,21.80
2006,08,19,13,00,21.90
2006,08,19,13,01,21.90
2006,08,19,13,02,21.90
2006,08,19,13,03,22.00
2006,08,19,13,04,22.00
2006,08,19,13,05,22.00
2006,08,19,13,06,22.10
2006,08,19,13,07,22.00
2006,08,19,13,08,21.90
2006,08,19,13,09,21.80
2006,08,19,13,10,21.90
2006,08,19,13,11,21.90
2006,08,19,13,12,21.90
2006,08,19,13,13,21.80
2006,08,19,13,14,21.70
2006,08,19,13,15,21.60
2006,08,19,13,16,21.60
2006,08,19,13,17,21.60
2006,08,19,13,18,21.60
2006,08,19,13,19,21.60
2006,08,19,13,20,21.60
2006,08,19,13,21,21.60
2006,08,19,13,22,21.70
2006,08,19,13,23,21.70
2006,08,19,13,24,21.90
2006,08,19,13,25,22.00
2006,08,19,13,26,22.00
2006,08,19,13,27,22.00
2006,08,19,13,28,22.00
2006,08,19,13,29,22.00
2006,08,19,13,30,22.10
2006,08,19,13,31,22.10
2006,08,19,13,32,22.10
2006,08,19,13,33,22.10
2006,08,19,13,34,22.10
2006,08,19,13,35,22.20
2006,08,19,13,36,22.20
2006,08,19,13,37,22.10
2006,08,19,13,38,22.20
2006,08,19,13,39,22.20
2006,08,19,13,40,22.20
2006,08,19,13,41,22.20
2006,08,19,13,42,22.20
2006,08,19,13,43,22.20
2006,08,19,13,44,22.30
2006,08,19,13,45,22.30
2006,08,19,13,46,22.20
2006,08,19,13,47,22.10
2006,08,19,13,48,22.10
2006,08,19,13,49,22.20
2006,08,19,13,50,22.20
2006,08,19,13,51,22.10
2006,08,19,13,52,22.10
2006,08,19,13,53,22.10
2006,08,19,13,54,22.20
2006,08,19,13,55,22.20
2006,08,19,13,56,22.20
2006,08,19,13,57,22.10
2006,08,19,13,58,22.00
2006,08,19,13,59,21.80
2006,08,19,14,00,21.70
2006,08,19,14,01,21.90
2006,08,19,14,02,22.00
2006,08,19,14,03,21.90
2006,08,19,14,04,21.80
2006,08,19,14,05,21.70
2006,08,19,14,06,21.60
2006,08,19,14,07,21.60
2006,08,19,14,08,21.70
2006,08,19,14,09,21.80
2006,08,19,14,10,21.90
2006,08,19,14,11,22.00
2006,08,19,14,12,22.00
2006,08,19,14,13,22.10
2006,08,19,14,14,22.20
2006,08,19,14,15,22.20
2006,08,19,14,16,22.30
2006,08,19,14,17,22.40
2006,08,19,14,18,22.50
2006,08,19,14,19,22.60
2006,08,19,14,20,22.80
2006,08,19,14,21,22.90
2006,08,19,14,22,23.00
2006,08,19,14,23,23.10
2006,08,19,14,24,23.10
2006,08,19,14,25,22.90
2006,08,19,14,26,22.90
2006,08,19,14,27,22.80
2006,08,19,14,28,22.80
2006,08,19,14,29,22.80
2006,08,19,14,30,22.80
2006,08,19,14,31,22.80
2006,08,19,14,32,22.70
2006,08,19,14,33,22.70
2006,08,19,14,34,22.70
2006,08,19,14,35,22.60
2006,08,19,14,36,22.50
2006,08,19,14,37,22.60
2006,08,19,14,38,22.60
2006,08,19,14,39,22.60
2006,08,19,14,40,22.60
2006,08,19,14,41,22.80
2006,08,19,14,42,22.80
2006,08,19,14,43,22.90
2006,08,19,14,44,22.90
2006,08,19,14,45,22.90
2006,08,19,14,46,23.00
2006,08,19,14,47,23.00
2006,08,19,14,48,23.00
2006,08,19,14,49,23.10
2006,08,19,14,50,23.10
2006,08,19,14,51,22.90
2006,08,19,14,52,22.90
2006,08,19,14,53,22.90
2006,08,19,14,54,22.90
2006,08,19,14,55,22.80
2006,08,19,14,56,22.80
2006,08,19,14,57,22.70
2006,08,19,14,58,22.80
2006,08,19,14,59,22.90
2006,08,19,15,00,23.10
2006,08,19,15,01,23.00
2006,08,19,15,02,22.90
2006,08,19,15,03,22.80
2006,08,19,15,04,22.70
2006,08,19,15,05,22.70
2006,08,19,15,06,22.80
2006,08,19,15,07,22.70
2006,08,19,15,08,22.70
2006,08,19,15,09,22.70
2006,08,19,15,10,22.60
2006,08,19,15,11,22.60
2006,08,19,15,12,22.60
2006,08,19,15,13,22.80
2006,08,19,15,14,22.90
2006,08,19,15,15,22.90
2006,08,19,15,16,22.80
2006,08,19,15,17,22.80
2006,08,19,15,18,22.80
2006,08,19,15,19,23.00
2006,08,19,15,20,23.20
2006,08,19,15,21,23.10
2006,08,19,15,22,23.00
2006,08,19,15,23,22.90
2006,08,19,15,24,22.90
2006,08,19,15,25,22.90
2006,08,19,15,26,22.90
2006,08,19,15,27,22.90
2006,08,19,15,28,23.00
2006,08,19,15,29,23.10
2006,08,19,15,30,23.20
2006,08,19,15,31,23.30
2006,08,19,15,32,23.40
2006,08,19,15,33,23.30
2006,08,19,15,34,23.30
2006,08,19,15,35,23.40
2006,08,19,15,36,23.50
2006,08,19,15,37,23.70
2006,08,19,15,38,23.70
2006,08,19,15,39,23.80
2006,08,19,15,40,23.70
2006,08,19,15,41,23.70
2006,08,19,15,42,23.70
2006,08,19,15,43,23.70
2006,08,19,15,44,23.80
2006,08,19,15,45,23.70
2006,08,19,15,46,23.70
2006,08,19,15,47,23.70
2006,08,19,15,48,23.70
2006,08,19,15,49,23.90
2006,08,19,15,50,24.00
2006,08,19,15,51,24.10
2006,08,19,15,52,24.10
2006,08,19,15,53,23.90
2006,08,19,15,54,23.90
2006,08,19,15,55,24.00
2006,08,19,15,56,24.10
2006,08,19,15,57,24.10
2006,08,19,15,58,24.10
2006,08,19,15,59,24.00
2006,08,19,16,00,23.90
2006,08,19,16,01,23.90
2006,08,19,16,02,23.90
2006,08,19,16,03,23.90
2006,08,19,16,04,24.00
2006,08,19,16,05,24.10
2006,08,19,16,06,24.10
2006,08,19,16,07,24.10
2006,08,19,16,08,24.10
2006,08,19,16,09,24.10
2006,08,19,16,10,24.10
2006,08,19,16,11,24.10
2006,08,19,16,12,24.20
2006,08,19,16,13,24.40
2006,08,19,16,14,24.50
2006,08,19,16,15,24.70
2006,08,19,16,16,24.80
2006,08,19,16,17,24.80
2006,08,19,16,18,24.80
2006,08,19,16,19,24.80
2006,08,19,16,20,24.90
2006,08,19,16,21,25.00
2006,08,19,16,22,25.10
2006,08,19,16,23,25.30
2006,08,19,16,24,25.40
2006,08,19,16,25,25.40
2006,08,19,16,26,25.30
2006,08,19,16,27,25.30
2006,08,19,16,28,25.20
2006,08,19,16,29,25.20
2006,08,19,16,30,25.20
2006,08,19,16,31,25.20
2006,08,19,16,32,25.20
2006,08,19,16,33,25.20
2006,08,19,16,34,25.10
2006,08,19,16,35,24.90
2006,08,19,16,36,24.80
2006,08,19,16,37,24.70
2006,08,19,16,38,24.60
2006,08,19,16,39,24.60
2006,08,19,16,40,24.60
2006,08,19,16,41,24.60
2006,08,19,16,42,24.60
2006,08,19,16,43,24.60
2006,08,19,16,44,24.60
2006,08,19,16,45,24.70
2006,08,19,16,46,24.70
2006,08,19,16,47,24.80
2006,08,19,16,48,24.80
2006,08,19,16,49,24.90
2006,08,19,16,50,24.90
2006,08,19,16,51,25.00
2006,08,19,16,52,24.90
2006,08,19,16,53,25.00
2006,08,19,16,54,25.00
2006,08,19,16,55,24.90
2006,08,19,16,56,24.80
2006,08,19,16,57,24.90
2006,08,19,16,58,24.90
2006,08,19,16,59,25.00
2006,08,19,17,00,25.00
2006,08,19,17,01,25.10
2006,08,19,17,02,25.10
2006,08,19,17,03,25.20
2006,08,19,17,04,25.10
2006,08,19,17,05,25.10
2006,08,19,17,06,25.00
2006,08,19,17,07,24.90
2006,08,19,17,08,24.80
2006,08,19,17,09,24.80
2006,08,19,17,10,24.80
2006,08,19,17,11,24.60
2006,08,19,17,12,24.60
2006,08,19,17,13,24.60
2006,08,19,17,14,24.60
2006,08,19,17,15,24.60
2006,08,19,17,16,24.70
2006,08,19,17,17,24.70
2006,08,19,17,18,24.80
2006,08,19,17,19,24.80